Regional Weather Roundup
Issued by NWS State College, PA

Home | Current Version | Previous Version | Text Only | Print | Product List | Glossary Off
Versions: 1 2 3 4 5 6 7 8 9 10 11 12 13 14 15 16 17 18 19 20 21 22 23 24 25 26 27 28 29 30 31 32 33 34 35 36 37 38 39 40 41 42 43 44 45 46 47 48 49 50

000
ASUS41 KCTP 261710
RWRCTP

REGIONAL WEATHER ROUNDUP
NATIONAL WEATHER SERVICE STATE COLLEGE PA
100 PM EDT TUE JUL 26 2016

Note: "fair" indicates few or no clouds below 12,000 feet with no
significant weather and/or obstructions to visibility.

* = STATION THAT DOES NOT REPORT PRECIPITATION /E.G. RAIN...SNOW...ETC/
    THUNDER OR FOG.

PAZ002>004-007>009-013>016-020>023-029>032-261800-
WESTERN PENNSYLVANIA

CITY           SKY/WX    TMP DP  RH WIND       PRES   REMARKS
ERIE           SUNNY     77  61  57 NW9       30.06S
MEADVILLE      SUNNY     77  58  51 NW7       30.08S
FRANKLIN*      SUNNY     81  59  47 NW9       30.09F
NEW CASTLE     FAIR      82  63  52 NW6       30.07F
BEAVER COUNTY  MOSUNNY   84  64  51 N8        30.07S
BUTLER*        CLOUDY    84  66  54 NW7       30.09S
PITTSBURGH INT CLOUDY    85  62  46 N7        30.05F
PITTSBURGH     PTSUNNY   83  65  54 VRB5      30.05S
INDIANA*       MOSUNNY   82  66  57 W8        30.08F
LATROBE        PTSUNNY   84  68  58 W7        30.05F
WASHINGTON CO* CLOUDY    84  64  51 NW5       30.06F
$$

PAZ004>006-010>012-017>019-024>028-033>037-041-042-045-046-049>053-261800-
CENTRAL PENNSYLVANIA

CITY           SKY/WX    TMP DP  RH WIND       PRES   REMARKS
BRADFORD       SUNNY     76  57  51 W10G16    30.07F
DUBOIS         SUNNY     82  58  43 W7        30.06S
CLEARFIELD     SUNNY     85  59  41 W9        30.04F
JOHNSTOWN      MOSUNNY   81  62  52 NW13      30.09S
ALTOONA        MOSUNNY   88  61  40 NW14G20   30.04F
STATE COLLEGE  MOSUNNY   84  63  48 NW12      30.01F
WILLIAMSPORT   SUNNY     88  61  40 NW9       29.94F
SELINSGROVE    MOSUNNY   87  68  52 NW8       29.96F
FT INDIANTOWN  PTSUNNY   85  69  58 VRB5      29.96F
CAPITAL CITY   PTSUNNY   89  67  47 N6        29.95F
HARRISBURG     PTSUNNY   88  71  57 W7        29.95F
YORK           MOSUNNY   87  70  56 NW5       29.97S
$$

PAZ038>040-043-044-047-048-054-055-060>062-067>071-261800-
EASTERN PENNSYLVANIA

CITY           SKY/WX    TMP DP  RH WIND       PRES   REMARKS
SCRANTON       SUNNY     85  67  54 N5        29.96F
MOUNT POCONO   MOSUNNY   79  61  53 W14G21    30.00F
ALLENTOWN      PTSUNNY   86  67  52 W10       29.93F
QUAKERTOWN*    MOSUNNY   86  68  54 CALM      29.96F
READING        PTSUNNY   88  65  46 NW8       29.94F
LANCASTER      CLOUDY    87  66  49 NW9       29.96F
COATESVILLE    MOSUNNY   84  70  61 NW7       29.98F
POTTSTOWN      MOSUNNY   87  65  47 NW8G18    29.96F
BLUE BELL      MOSUNNY   84  66  54 NW7       29.93F
DOYLESTOWN     SUNNY     85  64  49 NW7       29.93F
WILLOW GROVE   NOT AVBL
NORTH PHILA    MOSUNNY   92  69  47 NW10G17   29.93F HX  97
PHILADELPHIA   PTSUNNY   90  66  45 W13       29.92F
$$



USA.gov is the U.S. government's official web portal to all federal, state and local government web resources and services.